COSMOS 738

Satellite information

Favourite Embed

Satellite Type and Status

PAYLOADIN ORBIT

Key statistics

Satellite COSMOS 738 at a glance.

Uptime

18304

Days in orbit

Revolutions

≈ 12.4

Per day

Orbit

LEO

Low Earth Orbit

Inclination

74.0

Latest

Satellite identification and parameters

Extended collection of information and parameters for COSMOS 738.

Object identification

Identified? True

Debris? False

Object name: COSMOS 738

International designator: 1975-045G

Object number (NORAD): 7827

Object ID (CCSDS): 7827

Country: COMMONWEALTH OF INDEPENDENT STATES (CIS)

Current information (Y/N): Y

RCS size: MEDIUM

Orbital parameters

Period: 115.734 minutes

Inclination: 74.0195 deg

SMA: 7866.836 km

Apoapsis: 1508.449 km

Periapsis: 1468.952 km

RAAN: 304.4933 deg

Eccentricy: 0.0025104

Argument of periapsis: 62.3505 deg

Mean anomaly: 46.0175 deg

Mean motion: 12.44235694 rev/day

Mean motion (dot): -0.00000029 rev/day2

B* drag term: -0.000098311 1/REarth

Two-line elements (TLE)

Creation date: July 8, 2025, 2:27 a.m.

Reference frame: TEME

Reference center: EARTH

Epoch: July 7, 2025, 5:55 p.m. UTC

TLE line 0: 0 COSMOS 738

TLE line 1: 1 07827U 75045G 25188.74671936 -.00000029 00000-0 -98311-4 0 9991

TLE line 2: 2 07827 74.0195 304.4933 0025104 62.3505 46.0175 12.44235694276166

Live tracking on map

Real-time ground track for satellite COSMOS 738.

In-orbit conjunctions

A list of the most updated potential collisions computed for object COSMOS 738.

Target Orbit TCA Probability of collision Miss distance Type
DELTA 1 DEB SSO 2025-01-04 20:31:25 0.0002561603 295.0 (m) DEBRIS
DELTA 1 DEB SSO 2024-07-31 07:24:33 0.0001691387 192.0 (m) DEBRIS

Associated space launch

Military communications satellites

COSMOS 738 was lifted into orbit during the mission ‘Kosmos-3M | Strela-1M 89-96’, on board a Kosmos-3M space rocket.

The launch took place on May 28, 1975, 12:25 a.m. from 132/1 (132L).

For more information about the launch, click the button.

Launch to space Kosmos-3M | Strela-1M 89-96
Kosmos-3M | Strela-1M 89-96

Agency: N/A

Status: Launch Successful

Launch date: May 28, 1975, 12:25 a.m. UTC

Rocket: Kosmos-3M

Launch pad: 132/1 (132L)

Location: Plesetsk Cosmodrome, Russian Federation

...

Latest news about this satellite

There are no fresh news available about this satellite. Check back as we update our databases every day.


Newsletter sign-up

Weekly statistics, charts and insights to help you stay on top of the space industry.